Lid_Strength_Index
3 6 5 7 10 12 14 12 10 10 9 10 10 8 8 10 9 11 6 5 4 4 2 1 -0 0 0 0 1 1 1 1 0 0 0 0 0 0 -0 -1 -1 -2 -2 -2 -2 -2 -2 -2 -1
6 5 7 10 13 15 14 12 11 10 10 10 10 11 10 11 10 9 6 5 4 4 3 2 1 1 1 1 1 2 2 1 1 1 1 1 1 1 1 1 1 0 -0 -1 -1 -1 -1 -1 -1
6 7 9 12 15 15 14 12 11 10 10 10 11 11 12 12 9 7 6 5 4 4 3 2 1 1 2 2 2 2 2 2 2 2 2 2 2 2 2 2 2 1 1 1 1 1 1 0 -0
7 8 11 13 15 14 13 12 10 11 10 10 10 11 11 10 7 7 6 5 5 5 4 2 2 2 2 2 2 2 3 3 3 3 2 2 2 2 1 1 1 1 1 1 1 2 2 2 2
9 10 13 14 14 13 13 11 10 10 10 10 10 11 11 9 7 5 6 6 6 6 5 3 2 2 2 2 2 2 2 3 3 2 2 2 1 1 1 1 1 1 1 0 0 1 1 1 3
11 12 15 16 15 14 12 10 10 10 10 11 10 10 10 8 5 5 6 6 6 7 7 6 4 3 3 3 3 3 3 3 2 2 3 3 2 2 2 2 2 2 2 2 2 2 2 2 3
12 13 15 16 15 14 12 12 11 10 10 10 10 11 11 8 6 6 6 7 8 8 8 8 7 5 4 4 4 4 3 3 3 4 4 4 4 4 4 4 3 3 3 3 3 3 4 4 4
11 13 15 16 16 14 13 12 12 11 11 10 9 11 10 9 7 7 7 7 8 9 9 10 9 8 7 6 4 4 4 4 4 5 6 7 7 7 6 6 5 5 4 4 4 4 5 5 5
10 14 16 15 15 14 13 13 12 12 13 12 11 10 9 8 8 9 9 9 9 9 10 10 10 9 8 7 7 6 6 6 7 7 8 9 9 9 8 7 7 6 6 6 6 6 6 7 7
12 15 14 14 14 14 13 13 13 13 13 13 11 10 9 8 8 9 10 10 10 10 10 10 9 9 9 9 9 9 9 10 9 9 10 10 10 9 10 9 9 8 8 7 7 6 7 8 8
13 15 14 14 12 13 13 14 13 13 13 12 12 10 10 9 9 9 10 10 10 10 9 10 10 9 9 10 10 10 10 10 10 10 10 10 10 10 10 10 10 10 10 9 9 9 9 9 8
14 13 14 13 13 14 14 13 13 14 12 12 12 10 10 9 9 10 10 10 10 10 9 9 9 10 9 9 10 10 10 10 10 10 10 10 10 10 10 10 10 10 9 9 9 9 9 9 9
13 13 12 13 13 13 13 14 14 14 12 12 10 10 10 9 9 9 9 9 9 9 9 9 9 9 9 9 10 10 10 10 10 10 10 10 10 10 10 10 10 10 9 9 10 10 10 9 9
14 13 13 12 12 12 13 14 14 14 13 13 11 11 10 10 10 10 10 9 9 9 9 9 9 9 9 10 10 10 10 10 10 10 10 9 9 10 10 10 10 10 10 10 10 10 10 10 10
14 16 14 14 13 13 13 14 15 13 13 12 12 11 10 10 10 9 9 9 9 9 8 9 9 9 9 10 10 10 9 10 10 10 10 10 10 10 10 10 10 10 10 10 10 10 10 10 10
15 15 17 14 14 14 14 15 13 13 13 13 13 13 12 10 9 9 8 8 8 8 9 8 8 9 9 10 10 10 10 10 10 10 10 10 10 10 10 10 10 10 10 10 11 11 11 11 11
17 20 17 16 15 15 15 15 13 13 13 13 13 13 13 12 10 9 9 8 8 8 8 9 9 9 9 10 10 10 10 10 10 10 10 11 10 10 11 11 10 10 11 11 11 11 12 12 12
19 19 17 18 16 16 16 16 13 13 13 13 13 12 12 12 11 9 8 8 8 8 8 8 9 9 10 10 11 11 11 11 11 11 11 11 11 11 11 11 11 11 11 12 12 12 12 12 12
18 18 18 17 16 17 17 18 15 14 15 15 14 14 14 13 11 11 10 9 9 9 9 9 10 10 11 11 11 11 11 11 11 11 11 11 11 11 11 11 11 11 12 12 12 12 13 12 11
16 18 19 17 16 17 19 18 16 16 16 15 14 14 14 14 13 12 11 10 9 10 10 10 10 11 11 11 11 11 12 12 11 11 11 11 11 11 11 11 11 12 12 12 12 12 13 12 11
18 19 19 18 17 18 20 18 17 16 16 15 14 14 14 14 14 12 11 11 10 10 10 10 10 10 11 11 11 12 12 12 12 12 11 12 11 11 11 11 11 12 12 12 12 12 12 13 12
18 17 17 18 21 22 20 22 17 16 15 15 15 14 14 13 13 12 11 11 11 10 10 9 10 10 10 10 11 11 11 11 11 11 12 12 11 11 11 11 11 11 11 12 11 11 11 11 12
16 15 16 18 23 22 20 23 17 16 15 15 14 13 13 12 12 11 11 10 10 10 10 10 10 10 10 10 10 11 11 11 11 12 12 12 11 11 11 11 11 11 11 11 10 10 10 10 11
15 17 18 20 24 25 26 23 18 16 16 15 14 14 13 12 12 11 10 10 10 10 10 10 10 10 10 10 10 10 11 11 11 12 12 12 11 11 11 11 11 10 10 10 10 10 10 10 10
17 22 26 25 26 24 30 23 18 15 15 14 14 14 14 13 12 12 11 11 10 10 10 10 10 10 10 10 10 11 11 11 11 11 12 12 11 11 11 11 11 10 10 10 9 10 10 10 10
18 22 24 29 27 24 29 24 16 15 15 15 14 14 14 13 13 12 12 12 12 11 11 11 11 11 11 11 10 10 10 11 11 11 11 11 11 11 11 11 10 10 10 10 9 10 10 10 9
19 23 19 28 34 28 25 21 16 14 16 15 15 14 15 14 14 13 12 12 12 12 12 11 11 11 11 11 11 11 11 11 11 11 11 11 11 11 11 11 11 10 10 10 10 10 9 9 9
19 17 23 25 28 30 27 30 20 20 19 18 16 17 15 14 13 13 12 12 12 12 12 12 12 12 11 11 11 11 12 12 12 11 12 12 11 11 11 11 11 11 10 10 10 10 10 10 9
21 23 23 23 23 26 29 23 20 21 21 20 20 18 19 17 14 14 13 12 13 13 12 12 11 11 11 11 11 12 12 12 12 12 12 12 11 12 11 11 11 11 11 10 10 11 11 10 10
18 21 20 23 27 27 25 24 18 20 24 25 18 17 15 15 15 15 14 13 13 12 12 12 11 11 11 11 12 12 12 12 12 12 12 12 12 11 11 11 11 11 11 11 12 12 11 11 11